| time (UTC) | temp F | wind direction | speed knots | gust knots | rain 1hr in | rain 24hr in | rain mn in | humidity % | barometer mb |
| 20260506051249 | 58 | 7 | 4.3 | 11.3 | 0.00 | 0.00 | 0.00 | 76 | 1011.3 |
| 20260506050747 | 58 | 339 | 7.0 | 9.6 | 0.00 | 0.00 | 0.00 | 76 | 1011.3 |
| 20260506050244 | 59 | 31 | 6.1 | 9.6 | 0.00 | 0.00 | 0.00 | 76 | 1011.5 |
| 20260506044735 | 59 | 19 | 4.3 | 9.6 | 0.00 | 0.00 | 0.00 | 78 | 1011.5 |
| 20260506044232 | 59 | 356 | 5.2 | 7.0 | 0.00 | 0.00 | 0.00 | 78 | 1011.3 |
| 20260506043730 | 59 | 352 | 4.3 | 10.4 | 0.00 | 0.00 | 0.00 | 78 | 1011.2 |
| 20260506043227 | 59 | 25 | 3.5 | 9.6 | 0.00 | 0.00 | 0.00 | 78 | 1011.3 |
| 20260506042726 | 59 | 12 | 4.3 | 8.7 | 0.00 | 0.00 | 0.00 | 78 | 1011.7 |
| 20260506042224 | 59 | 16 | 7.0 | 10.4 | 0.00 | 0.00 | 0.00 | 78 | 1011.3 |
| 20260506041722 | 60 | 358 | 6.1 | 7.8 | 0.00 | 0.00 | 0.00 | 78 | 1011.5 |
| 20260506041219 | 60 | 350 | 4.3 | 9.6 | 0.00 | 0.00 | 0.00 | 79 | 1011.0 |
| 20260506040716 | 60 | 352 | 5.2 | 10.4 | 0.00 | 0.00 | 0.00 | 79 | 1011.1 |
| 20260506040213 | 60 | 22 | 1.7 | 5.2 | 0.00 | 0.00 | 0.00 | 79 | 1011.2 |
| 20260506035710 | 60 | 4 | 7.8 | 10.4 | 0.00 | 0.00 | 0.00 | 78 | 1011.0 |
| 20260506035207 | 60 | 345 | 3.5 | 7.8 | 0.00 | 0.00 | 0.00 | 79 | 1010.8 |
| 20260506034703 | 60 | 352 | 4.3 | 11.3 | 0.00 | 0.00 | 0.00 | 79 | 1011.1 |
| 20260506034201 | 61 | 356 | 6.1 | 10.4 | 0.00 | 0.00 | 0.00 | 78 | 1010.9 |
| 20260506033658 | 61 | 13 | 6.1 | 9.6 | 0.00 | 0.00 | 0.00 | 79 | 1010.6 |
| 20260506033155 | 61 | 41 | 5.2 | 9.6 | 0.00 | 0.00 | 0.00 | 78 | 1010.7 |
| 20260506032652 | 61 | 3 | 4.3 | 11.3 | 0.00 | 0.00 | 0.00 | 78 | 1010.5 |
| 20260506032149 | 61 | 349 | 9.6 | 9.6 | 0.00 | 0.00 | 0.00 | 78 | 1010.6 |
| 20260506031645 | 61 | 14 | 3.5 | 7.8 | 0.00 | 0.00 | 0.00 | 78 | 1010.7 |
| 20260506031142 | 62 | 356 | 5.2 | 9.6 | 0.00 | 0.00 | 0.00 | 77 | 1010.7 |
| 20260506030641 | 62 | 350 | 4.3 | 9.6 | 0.00 | 0.00 | 0.00 | 77 | 1010.7 |
| 20260506030138 | 62 | 354 | 5.2 | 8.7 | 0.00 | 0.00 | 0.00 | 78 | 1010.4 |
| 20260506025635 | 62 | 17 | 4.3 | 11.3 | 0.00 | 0.00 | 0.00 | 77 | 1010.5 |
| 20260506025131 | 62 | 20 | 2.6 | 8.7 | 0.00 | 0.00 | 0.00 | 77 | 1010.2 |
| 20260506024629 | 62 | 344 | 3.5 | 9.6 | 0.00 | 0.00 | 0.00 | 77 | 1010.2 |
| 20260506024124 | 63 | 348 | 2.6 | 8.7 | 0.00 | 0.00 | 0.00 | 77 | 1009.9 |
| 20260506023621 | 63 | 342 | 6.1 | 9.6 | 0.00 | 0.00 | 0.00 | 77 | 1009.9 |
| 20260506023118 | 63 | 15 | 5.2 | 11.3 | 0.00 | 0.00 | 0.00 | 77 | 1009.9 |
| 20260506022615 | 63 | 350 | 5.2 | 8.7 | 0.00 | 0.00 | 0.00 | 77 | 1009.8 |
| 20260506022113 | 64 | 12 | 6.1 | 7.8 | 0.00 | 0.00 | 0.00 | 77 | 1009.3 |
| 20260506021610 | 64 | 37 | 5.2 | 10.4 | 0.00 | 0.00 | 0.00 | 76 | 1008.9 |
| 20260506021108 | 65 | 346 | 4.3 | 9.6 | 0.00 | 0.00 | 0.00 | 76 | 1009.0 |
| 20260506020604 | 65 | 11 | 7.8 | 9.6 | 0.00 | 0.00 | 0.00 | 75 | 1009.0 |
| 20260506015559 | 66 | 326 | 5.2 | 6.1 | 0.00 | 0.00 | 0.00 | 75 | 1008.8 |
| 20260506015056 | 66 | 351 | 5.2 | 7.0 | 0.00 | 0.00 | 0.00 | 74 | 1008.6 |
| 20260506014554 | 66 | 1 | 3.5 | 6.1 | 0.00 | 0.00 | 0.00 | 74 | 1008.4 |
| 20260506014049 | 67 | 335 | 7.0 | 8.7 | 0.00 | 0.00 | 0.00 | 74 | 1008.5 |
| 20260506013548 | 67 | 3 | 3.5 | 9.6 | 0.00 | 0.00 | 0.00 | 74 | 1008.1 |
| 20260506013044 | 67 | 14 | 6.1 | 7.8 | 0.00 | 0.00 | 0.00 | 74 | 1008.1 |
| 20260506012540 | 67 | 56 | 4.3 | 7.8 | 0.00 | 0.00 | 0.00 | 74 | 1008.2 |
| 20260506012037 | 68 | 353 | 3.5 | 9.6 | 0.00 | 0.00 | 0.00 | 74 | 1008.6 |
| 20260506011535 | 68 | 15 | 5.2 | 7.8 | 0.00 | 0.00 | 0.00 | 74 | 1008.2 |
| 20260506011031 | 68 | 13 | 3.5 | 5.2 | 0.00 | 0.00 | 0.00 | 73 | 1007.7 |
| 20260506010530 | 68 | 345 | 1.7 | 4.3 | 0.00 | 0.00 | 0.00 | 73 | 1007.7 |
| 20260506010026 | 69 | 343 | 1.7 | 7.0 | 0.00 | 0.00 | 0.00 | 72 | 1007.8 |
| 20260506005523 | 69 | 336 | 7.8 | 9.6 | 0.00 | 0.00 | 0.00 | 72 | 1007.5 |
| 20260506005019 | 69 | 352 | 6.1 | 9.6 | 0.00 | 0.00 | 0.00 | 71 | 1007.2 |
| 20260506004517 | 69 | 333 | 3.5 | 9.6 | 0.00 | 0.00 | 0.00 | 71 | 1007.2 |
| 20260506004013 | 69 | 10 | 3.5 | 8.7 | 0.00 | 0.00 | 0.00 | 70 | 1006.9 |
| 20260506003510 | 70 | 9 | 4.3 | 11.3 | 0.00 | 0.00 | 0.00 | 70 | 1007.0 |
| 20260506003006 | 70 | 331 | 5.2 | 9.6 | 0.00 | 0.00 | 0.00 | 69 | 1006.8 |
| 20260506002502 | 70 | 354 | 7.8 | 12.2 | 0.00 | 0.00 | 0.00 | 69 | 1006.9 |
| 20260506001957 | 71 | 328 | 6.1 | 8.7 | 0.00 | 0.00 | 0.00 | 68 | 1006.9 |
| 20260506001454 | 71 | 12 | 5.2 | 8.7 | 0.00 | 0.00 | 0.00 | 68 | 1006.9 |
| 20260506000952 | 71 | 317 | 7.8 | 11.3 | 0.00 | 0.00 | 0.00 | 67 | 1007.1 |
| 20260506000449 | 71 | 358 | 5.2 | 10.4 | 0.00 | 0.00 | 0.00 | 67 | 1007.1 |
| 20260505235946 | 71 | 325 | 6.1 | 9.6 | 0.00 | 0.00 | 0.00 | 68 | 1006.9 |
| 20260505235444 | 72 | 337 | 9.6 | 10.4 | 0.00 | 0.00 | 0.00 | 68 | 1006.9 |
| 20260505234940 | 72 | 335 | 6.1 | 13.0 | 0.00 | 0.00 | 0.00 | 67 | 1006.8 |
| 20260505234438 | 72 | 351 | 7.0 | 10.4 | 0.00 | 0.00 | 0.00 | 67 | 1007.1 |
| 20260505233934 | 73 | 323 | 7.8 | 9.6 | 0.00 | 0.00 | 0.00 | 66 | 1007.0 |
| 20260505233432 | 73 | 340 | 7.8 | 13.9 | 0.00 | 0.00 | 0.00 | 66 | 1006.9 |
| 20260505232930 | 73 | 334 | 6.1 | 13.0 | 0.00 | 0.00 | 0.00 | 66 | 1006.7 |
| 20260505232428 | 74 | 334 | 7.8 | 9.6 | 0.00 | 0.00 | 0.00 | 66 | 1006.1 |
| 20260505231924 | 74 | 308 | 5.2 | 10.4 | 0.00 | 0.00 | 0.00 | 66 | 1006.4 |
| 20260505231422 | 75 | 336 | 7.8 | 13.9 | 0.00 | 0.00 | 0.00 | 65 | 1006.4 |
| 20260505230919 | 75 | 354 | 7.0 | 11.3 | 0.00 | 0.00 | 0.00 | 64 | 1006.8 |
| 20260505230417 | 76 | 20 | 5.2 | 12.2 | 0.00 | 0.00 | 0.00 | 63 | 1006.7 |
| 20260505225913 | 77 | 342 | 7.0 | 12.2 | 0.00 | 0.00 | 0.00 | 62 | 1006.3 |
| 20260505225411 | 77 | 326 | 4.3 | 8.7 | 0.00 | 0.00 | 0.00 | 61 | 1006.0 |
| 20260505224912 | 77 | 339 | 10.4 | 12.2 | 0.00 | 0.00 | 0.00 | 61 | 1006.3 |
| 20260505224409 | 78 | 328 | 5.2 | 9.6 | 0.00 | 0.00 | 0.00 | 61 | 1006.0 |
| 20260505223906 | 78 | 325 | 7.8 | 11.3 | 0.00 | 0.00 | 0.00 | 60 | 1005.8 |
| 20260505223403 | 79 | 325 | 6.1 | 13.0 | 0.00 | 0.00 | 0.00 | 60 | 1006.0 |
| 20260505222859 | 80 | 329 | 4.3 | 9.6 | 0.00 | 0.00 | 0.00 | 60 | 1006.0 |
| 20260505222355 | 80 | 346 | 6.1 | 13.9 | 0.00 | 0.00 | 0.00 | 58 | 1005.6 |
| 20260505221852 | 81 | 339 | 7.8 | 13.9 | 0.00 | 0.00 | 0.00 | 58 | 1005.6 |
| 20260505221349 | 83 | 327 | 6.1 | 8.7 | 0.00 | 0.00 | 0.00 | 56 | 1005.5 |
| 20260505220846 | 84 | 332 | 4.3 | 11.3 | 0.00 | 0.00 | 0.00 | 52 | 1005.5 |
| 20260505220343 | 85 | 332 | 6.1 | 11.3 | 0.00 | 0.00 | 0.00 | 51 | 1005.3 |
| 20260505215841 | 85 | 329 | 6.1 | 8.7 | 0.00 | 0.00 | 0.00 | 49 | 1005.2 |
| 20260505215339 | 85 | 306 | 4.3 | 11.3 | 0.00 | 0.00 | 0.00 | 49 | 1005.4 |
| 20260505214837 | 84 | 327 | 2.6 | 7.0 | 0.00 | 0.00 | 0.00 | 48 | 1005.2 |
| 20260505214334 | 84 | 323 | 3.5 | 10.4 | 0.00 | 0.00 | 0.00 | 47 | 1005.1 |
| 20260505213831 | 84 | 337 | 4.3 | 11.3 | 0.00 | 0.00 | 0.00 | 46 | 1005.3 |
| 20260505213329 | 85 | 307 | 3.5 | 13.0 | 0.00 | 0.00 | 0.00 | 44 | 1005.4 |
| 20260505212824 | 86 | 331 | 5.2 | 8.7 | 0.00 | 0.00 | 0.00 | 44 | 1005.4 |
| 20260505212322 | 86 | 315 | 3.5 | 7.8 | 0.00 | 0.00 | 0.00 | 44 | 1005.4 |
| 20260505211818 | 86 | 348 | 6.1 | 11.3 | 0.00 | 0.00 | 0.00 | 41 | 1005.5 |
| 20260505211316 | 87 | 288 | 6.1 | 12.2 | 0.00 | 0.00 | 0.00 | 41 | 1005.3 |
| 20260505210812 | 87 | 334 | 6.1 | 11.3 | 0.00 | 0.00 | 0.00 | 40 | 1005.3 |
| 20260505210309 | 87 | 312 | 8.7 | 13.9 | 0.00 | 0.00 | 0.00 | 41 | 1005.4 |
| 20260505205806 | 88 | 311 | 7.0 | 11.3 | 0.00 | 0.00 | 0.00 | 43 | 1005.5 |
| 20260505205305 | 89 | 317 | 4.3 | 7.8 | 0.00 | 0.00 | 0.00 | 45 | 1005.4 |
| 20260505204800 | 89 | 239 | 3.5 | 11.3 | 0.00 | 0.00 | 0.00 | 49 | 1005.6 |
| 20260505204258 | 88 | 213 | 5.2 | 9.6 | 0.00 | 0.00 | 0.00 | 53 | 1005.5 |
| 20260505203755 | 87 | 183 | 4.3 | 7.8 | 0.00 | 0.00 | 0.00 | 54 | 1005.6 |
| 20260505203252 | 87 | 282 | 5.2 | 5.2 | 0.00 | 0.00 | 0.00 | 54 | 1005.4 |
| 20260505202748 | 87 | 231 | 6.1 | 9.6 | 0.00 | 0.00 | 0.00 | 56 | 1005.5 |
| 20260505202244 | 85 | 214 | 5.2 | 7.0 | 0.00 | 0.00 | 0.00 | 58 | 1005.5 |
| 20260505201741 | 85 | 214 | 5.2 | 9.6 | 0.00 | 0.00 | 0.00 | 59 | 1005.7 |
| 20260505201238 | 85 | 217 | 4.3 | 10.4 | 0.00 | 0.00 | 0.00 | 58 | 1005.8 |
| 20260505200737 | 85 | 225 | 4.3 | 7.8 | 0.00 | 0.00 | 0.00 | 59 | 1005.8 |
| 20260505200234 | 85 | 213 | 7.0 | 11.3 | 0.00 | 0.00 | 0.00 | 57 | 1005.8 |
| 20260505195729 | 85 | 242 | 5.2 | 12.2 | 0.00 | 0.00 | 0.00 | 60 | 1005.7 |
| 20260505195227 | 85 | 224 | 4.3 | 10.4 | 0.00 | 0.00 | 0.00 | 58 | 1005.5 |
| 20260505194724 | 85 | 249 | 4.3 | 7.8 | 0.00 | 0.00 | 0.00 | 60 | 1005.9 |
| 20260505194220 | 85 | 213 | 11.3 | 12.2 | 0.00 | 0.00 | 0.00 | 58 | 1005.7 |
| 20260505193716 | 86 | 215 | 7.0 | 8.7 | 0.00 | 0.00 | 0.00 | 61 | 1005.6 |
| 20260505193213 | 85 | 239 | 1.7 | 7.0 | 0.00 | 0.00 | 0.00 | 62 | 1006.0 |
| 20260505192712 | 86 | 216 | 7.0 | 10.4 | 0.00 | 0.00 | 0.00 | 60 | 1005.9 |
| 20260505192209 | 85 | 214 | 7.8 | 11.3 | 0.00 | 0.00 | 0.00 | 62 | 1005.8 |
| 20260505191707 | 86 | 174 | 5.2 | 8.7 | 0.00 | 0.00 | 0.00 | 61 | 1005.5 |
| 20260505191205 | 85 | 263 | 1.7 | 7.8 | 0.00 | 0.00 | 0.00 | 64 | 1005.9 |
| 20260505190702 | 84 | 196 | 4.3 | 7.0 | 0.00 | 0.00 | 0.00 | 65 | 1005.6 |
| 20260505190201 | 83 | 220 | 7.0 | 11.3 | 0.00 | 0.00 | 0.00 | 64 | 1005.7 |
| 20260505185658 | 84 | 197 | 2.6 | 11.3 | 0.00 | 0.00 | 0.00 | 64 | 1005.6 |
| 20260505185154 | 84 | 220 | 3.5 | 7.0 | 0.00 | 0.00 | 0.00 | 64 | 1005.6 |
| 20260505184651 | 84 | 212 | 6.1 | 7.8 | 0.00 | 0.00 | 0.00 | 64 | 1005.6 |
| 20260505184148 | 84 | 229 | 2.6 | 9.6 | 0.00 | 0.00 | 0.00 | 63 | 1005.4 |
| 20260505183645 | 84 | 230 | 1.7 | 6.1 | 0.00 | 0.00 | 0.00 | 64 | 1005.8 |
| 20260505183142 | 84 | 239 | 4.3 | 6.1 | 0.00 | 0.00 | 0.00 | 64 | 1005.8 |
| 20260505182638 | 84 | 223 | 4.3 | 9.6 | 0.00 | 0.00 | 0.00 | 65 | 1005.9 |
| 20260505182136 | 83 | 168 | 1.7 | 9.6 | 0.00 | 0.00 | 0.00 | 65 | 1005.7 |
| 20260505181632 | 83 | 231 | 0.9 | 3.5 | 0.00 | 0.00 | 0.00 | 65 | 1005.6 |
| 20260505181130 | 83 | 180 | 6.1 | 10.4 | 0.00 | 0.00 | 0.00 | 65 | 1005.8 |
| 20260505180625 | 82 | 209 | 6.1 | 8.7 | 0.00 | 0.00 | 0.00 | 65 | 1005.9 |
| 20260505180123 | 83 | 185 | 5.2 | 6.1 | 0.00 | 0.00 | 0.00 | 65 | 1006.0 |
| 20260505175619 | 82 | 197 | 6.1 | 8.7 | 0.00 | 0.00 | 0.00 | 65 | 1005.8 |
| 20260505175115 | 82 | 256 | 2.6 | 7.8 | 0.00 | 0.00 | 0.00 | 68 | 1005.9 |
| 20260505174612 | 82 | 249 | 2.6 | 9.6 | 0.00 | 0.00 | 0.00 | 67 | 1005.8 |
| 20260505174108 | 81 | 135 | 3.5 | 7.0 | 0.00 | 0.00 | 0.00 | 69 | 1006.0 |
| 20260505173605 | 80 | 185 | 8.7 | 11.3 | 0.00 | 0.00 | 0.00 | 68 | 1005.9 |
| 20260505173102 | 80 | 207 | 7.0 | 10.4 | 0.00 | 0.00 | 0.00 | 69 | 1005.8 |
| 20260505172559 | 80 | 188 | 2.6 | 9.6 | 0.00 | 0.00 | 0.00 | 69 | 1005.8 |
| 20260505172056 | 80 | 213 | 5.2 | 9.6 | 0.00 | 0.00 | 0.00 | 68 | 1005.7 |
| 20260505171550 | 80 | 229 | 4.3 | 9.6 | 0.00 | 0.00 | 0.00 | 70 | 1005.8 |
| 20260505171048 | 79 | 205 | 5.2 | 7.8 | 0.00 | 0.00 | 0.00 | 71 | 1005.7 |
| 20260505170544 | 78 | 210 | 7.8 | 9.6 | 0.00 | 0.00 | 0.00 | 71 | 1005.7 |
| 20260505170041 | 78 | 205 | 5.2 | 5.2 | 0.00 | 0.00 | 0.00 | 73 | 1005.8 |
| 20260505165536 | 78 | 193 | 6.1 | 9.6 | 0.00 | 0.00 | 0.00 | 72 | 1005.8 |
| 20260505165032 | 78 | 207 | 3.5 | 10.4 | 0.00 | 0.00 | 0.00 | 72 | 1005.7 |
| 20260505164528 | 78 | 141 | 2.6 | 7.0 | 0.00 | 0.00 | 0.00 | 72 | 1005.8 |
| 20260505164026 | 78 | 201 | 4.3 | 9.6 | 0.00 | 0.00 | 0.00 | 72 | 1005.7 |
| 20260505163525 | 77 | 151 | 1.7 | 8.7 | 0.00 | 0.00 | 0.00 | 72 | 1005.7 |
| 20260505163021 | 77 | 198 | 7.0 | 12.2 | 0.00 | 0.00 | 0.00 | 73 | 1005.7 |
| 20260505162514 | 77 | 146 | 3.5 | 7.0 | 0.00 | 0.00 | 0.00 | 74 | 1005.8 |
| 20260505162011 | 76 | 147 | 1.7 | 8.7 | 0.00 | 0.00 | 0.00 | 74 | 1005.7 |
| 20260505161508 | 76 | 215 | 4.3 | 10.4 | 0.00 | 0.00 | 0.00 | 74 | 1005.7 |
| 20260505161005 | 76 | 206 | 5.2 | 8.7 | 0.00 | 0.00 | 0.00 | 74 | 1005.7 |
| 20260505160503 | 77 | 202 | 7.8 | 12.2 | 0.00 | 0.00 | 0.00 | 73 | 1005.8 |
| 20260505152939 | 78 | 180 | 7.0 | 9.6 | 0.00 | 0.00 | 0.00 | 73 | 1005.5 |
| 20260505152438 | 77 | 276 | 2.6 | 7.0 | 0.00 | 0.00 | 0.00 | 76 | 1005.1 |
| 20260505151937 | 76 | 145 | 4.3 | 12.2 | 0.00 | 0.00 | 0.00 | 75 | 1005.2 |
| 20260505151433 | 76 | 207 | 5.2 | 9.6 | 0.00 | 0.00 | 0.00 | 76 | 1005.2 |
| 20260505150931 | 75 | 193 | 2.6 | 9.6 | 0.00 | 0.00 | 0.00 | 77 | 1005.5 |
| 20260505150427 | 75 | 192 | 1.7 | 12.2 | 0.00 | 0.00 | 0.00 | 78 | 1005.4 |
| 20260505140357 | 73 | 183 | 4.3 | 9.6 | 0.00 | 0.00 | 0.00 | 81 | 1005.3 |
| 20260505124811 | 71 | 212 | 7.8 | 13.9 | 0.00 | 0.00 | 0.00 | 85 | 1004.7 |
| 20260505124308 | 71 | 160 | 4.3 | 9.6 | 0.00 | 0.00 | 0.00 | 85 | 1004.6 |
| 20260505123804 | 71 | 210 | 4.3 | 9.6 | 0.00 | 0.00 | 0.00 | 84 | 1004.8 |
| 20260505123301 | 70 | 190 | 6.1 | 8.7 | 0.00 | 0.00 | 0.00 | 85 | 1004.7 |
| 20260505122757 | 70 | 152 | 5.2 | 12.2 | 0.00 | 0.00 | 0.00 | 85 | 1004.4 |
| 20260505122255 | 70 | 177 | 5.2 | 8.7 | 0.00 | 0.00 | 0.00 | 85 | 1004.5 |
| 20260505121751 | 70 | 190 | 6.1 | 12.2 | 0.00 | 0.00 | 0.00 | 85 | 1004.3 |
| 20260505121247 | 70 | 205 | 9.6 | 10.4 | 0.00 | 0.00 | 0.00 | 85 | 1004.4 |
| 20260505120744 | 70 | 206 | 3.5 | 14.8 | 0.00 | 0.00 | 0.00 | 85 | 1004.3 |
| 20260505120240 | 70 | 212 | 3.5 | 7.8 | 0.00 | 0.00 | 0.00 | 85 | 1004.3 |
| 20260505115739 | 70 | 207 | 5.2 | 8.7 | 0.00 | 0.00 | 0.00 | 85 | 1004.4 |
| 20260505115237 | 70 | 187 | 6.1 | 11.3 | 0.00 | 0.00 | 0.00 | 85 | 1004.2 |
| 20260505114734 | 70 | 214 | 4.3 | 9.6 | 0.00 | 0.00 | 0.00 | 85 | 1004.2 |
| 20260505114230 | 70 | 216 | 4.3 | 12.2 | 0.00 | 0.00 | 0.00 | 85 | 1004.2 |
| 20260505113726 | 70 | 174 | 4.3 | 7.8 | 0.00 | 0.00 | 0.00 | 85 | 1004.2 |
| 20260505113223 | 70 | 222 | 2.6 | 7.0 | 0.00 | 0.00 | 0.00 | 85 | 1004.2 |
| 20260505112719 | 70 | 216 | 6.1 | 11.3 | 0.00 | 0.00 | 0.00 | 85 | 1004.0 |
| 20260505112218 | 70 | 131 | 2.6 | 7.8 | 0.00 | 0.00 | 0.00 | 85 | 1004.3 |
| 20260505111717 | 70 | 218 | 6.1 | 9.6 | 0.00 | 0.00 | 0.00 | 85 | 1004.4 |
| 20260505111213 | 70 | 209 | 2.6 | 9.6 | 0.00 | 0.00 | 0.00 | 84 | 1004.2 |
| 20260505110709 | 70 | 194 | 4.3 | 11.3 | 0.00 | 0.00 | 0.00 | 84 | 1004.1 |
| 20260505110207 | 70 | 183 | 6.1 | 8.7 | 0.00 | 0.00 | 0.00 | 84 | 1004.1 |
| 20260505102142 | 70 | 165 | 7.8 | 10.4 | 0.00 | 0.00 | 0.00 | 83 | 1004.3 |
| 20260505101641 | 70 | 186 | 5.2 | 7.8 | 0.00 | 0.00 | 0.00 | 83 | 1004.3 |
| 20260505101137 | 70 | 206 | 3.5 | 9.6 | 0.00 | 0.00 | 0.00 | 83 | 1004.2 |
| 20260505100633 | 71 | 149 | 1.7 | 14.8 | 0.00 | 0.00 | 0.00 | 83 | 1004.4 |
| 20260505100130 | 71 | 213 | 3.5 | 9.6 | 0.00 | 0.00 | 0.00 | 83 | 1004.1 |
| 20260505095626 | 71 | 232 | 3.5 | 12.2 | 0.00 | 0.00 | 0.00 | 83 | 1004.5 |
| 20260505095123 | 71 | 129 | 1.7 | 9.6 | 0.00 | 0.00 | 0.00 | 83 | 1004.2 |
| 20260505094620 | 71 | 207 | 13.0 | 13.9 | 0.00 | 0.00 | 0.00 | 83 | 1004.4 |
| 20260505094116 | 71 | 187 | 4.3 | 12.2 | 0.00 | 0.00 | 0.00 | 83 | 1004.1 |
| 20260505093612 | 71 | 163 | 6.1 | 9.6 | 0.00 | 0.00 | 0.00 | 83 | 1004.0 |
| 20260505093110 | 71 | 170 | 3.5 | 9.6 | 0.00 | 0.00 | 0.00 | 83 | 1004.3 |
| 20260505092607 | 71 | 125 | 2.6 | 10.4 | 0.00 | 0.00 | 0.00 | 83 | 1004.4 |
| 20260505092106 | 71 | 195 | 5.2 | 9.6 | 0.00 | 0.00 | 0.00 | 83 | 1004.3 |
| 20260505091602 | 71 | 187 | 3.5 | 11.3 | 0.00 | 0.00 | 0.00 | 82 | 1004.6 |
| 20260505091100 | 71 | 194 | 6.1 | 10.4 | 0.00 | 0.00 | 0.00 | 82 | 1004.6 |
| 20260505090558 | 71 | 124 | 2.6 | 11.3 | 0.00 | 0.00 | 0.00 | 82 | 1004.6 |
| 20260505090055 | 71 | 183 | 6.1 | 13.9 | 0.00 | 0.00 | 0.00 | 82 | 1004.6 |
| 20260505085553 | 71 | 202 | 4.3 | 9.6 | 0.00 | 0.00 | 0.00 | 82 | 1004.6 |
| 20260505085051 | 71 | 210 | 3.5 | 9.6 | 0.00 | 0.00 | 0.00 | 81 | 1004.6 |
| 20260505084549 | 71 | 174 | 10.4 | 13.0 | 0.00 | 0.00 | 0.00 | 81 | 1004.7 |
| 20260505084047 | 71 | 117 | 0.9 | 7.8 | 0.00 | 0.00 | 0.00 | 81 | 1004.6 |
| 20260505083543 | 71 | 238 | 4.3 | 9.6 | 0.00 | 0.00 | 0.00 | 81 | 1004.7 |
| 20260505083040 | 71 | 224 | 2.6 | 8.7 | 0.00 | 0.00 | 0.00 | 80 | 1004.5 |
| 20260505082536 | 71 | 167 | 4.3 | 8.7 | 0.00 | 0.00 | 0.00 | 80 | 1004.7 |
| 20260505082033 | 71 | 201 | 7.0 | 9.6 | 0.00 | 0.00 | 0.00 | 80 | 1004.8 |
| 20260505081529 | 71 | 305 | 1.7 | 7.0 | 0.00 | 0.00 | 0.00 | 79 | 1004.8 |
| 20260505081026 | 71 | 161 | 3.5 | 11.3 | 0.00 | 0.00 | 0.00 | 79 | 1004.8 |
| 20260505080522 | 71 | 161 | 8.7 | 9.6 | 0.00 | 0.00 | 0.00 | 79 | 1004.6 |
| 20260505080019 | 71 | 201 | 2.6 | 7.0 | 0.00 | 0.00 | 0.00 | 78 | 1004.7 |
| 20260505075515 | 72 | 298 | 1.7 | 9.6 | 0.00 | 0.00 | 0.00 | 78 | 1004.7 |
| 20260505075012 | 72 | 202 | 4.3 | 10.4 | 0.00 | 0.00 | 0.00 | 78 | 1004.8 |
| 20260505074510 | 72 | 204 | 5.2 | 9.6 | 0.00 | 0.00 | 0.00 | 77 | 1005.1 |
| 20260505074007 | 72 | 190 | 7.8 | 12.2 | 0.00 | 0.00 | 0.00 | 77 | 1005.1 |
| 20260505073504 | 72 | 128 | 2.6 | 9.6 | 0.00 | 0.00 | 0.00 | 76 | 1005.1 |
| 20260505073002 | 72 | 193 | 6.1 | 13.0 | 0.00 | 0.00 | 0.00 | 76 | 1005.2 |
| 20260505072457 | 72 | 153 | 3.5 | 9.6 | 0.00 | 0.00 | 0.00 | 75 | 1005.4 |
| 20260505071953 | 72 | 200 | 7.0 | 13.0 | 0.00 | 0.00 | 0.00 | 75 | 1005.5 |
| 20260505071449 | 72 | 190 | 7.8 | 13.0 | 0.00 | 0.00 | 0.00 | 75 | 1005.5 |
| 20260505070948 | 73 | 220 | 3.5 | 9.6 | 0.00 | 0.00 | 0.00 | 74 | 1005.3 |
| 20260505070444 | 73 | 207 | 5.2 | 9.6 | 0.00 | 0.00 | 0.00 | 74 | 1005.7 |
| 20260505065940 | 73 | 155 | 3.5 | 11.3 | 0.00 | 0.00 | 0.00 | 73 | 1005.6 |
| 20260505065437 | 73 | 207 | 4.3 | 9.6 | 0.00 | 0.00 | 0.00 | 73 | 1005.7 |
| 20260505064933 | 73 | 236 | 6.1 | 8.7 | 0.00 | 0.00 | 0.00 | 72 | 1005.6 |
| 20260505064430 | 73 | 153 | 2.6 | 11.3 | 0.00 | 0.00 | 0.00 | 72 | 1005.8 |
| 20260505063929 | 73 | 200 | 8.7 | 11.3 | 0.00 | 0.00 | 0.00 | 72 | 1005.9 |
| 20260505063425 | 73 | 185 | 4.3 | 13.9 | 0.00 | 0.00 | 0.00 | 71 | 1006.0 |
| 20260505062921 | 73 | 207 | 4.3 | 7.8 | 0.00 | 0.00 | 0.00 | 71 | 1005.8 |
| 20260505062419 | 74 | 180 | 7.8 | 15.6 | 0.00 | 0.00 | 0.00 | 71 | 1005.8 |
| 20260505061915 | 74 | 193 | 9.6 | 13.9 | 0.00 | 0.00 | 0.00 | 71 | 1006.1 |
| 20260505061414 | 74 | 206 | 5.2 | 8.7 | 0.00 | 0.00 | 0.00 | 71 | 1005.8 |
| 20260505060911 | 74 | 92 | 1.7 | 10.4 | 0.00 | 0.00 | 0.00 | 71 | 1005.9 |
| 20260505060408 | 73 | 192 | 5.2 | 7.0 | 0.00 | 0.00 | 0.00 | 71 | 1006.0 |
| 20260505055904 | 73 | 197 | 5.2 | 8.7 | 0.00 | 0.00 | 0.00 | 71 | 1006.1 |
| 20260505055400 | 73 | 200 | 7.0 | 7.8 | 0.00 | 0.00 | 0.00 | 71 | 1006.0 |
| 20260505054857 | 74 | 114 | 3.5 | 13.0 | 0.00 | 0.00 | 0.00 | 71 | 1005.9 |